Regional Weather Roundup
Issued by NWS

Home | Current Version | Previous Version | Text Only | Print | Product List | Glossary Off
Versions: 1 2 3 4 5 6 7 8 9 10 11 12 13 14 15 16 17 18 19 20 21 22 23 24 25 26 27 28 29 30 31 32 33 34 35 36 37 38 39 40 41 42 43 44 45 46 47 48 49 50

000
ASUS43 KIND 252059
RWRIN

WEATHER ROUNDUP FOR INDIANA
NATIONAL WEATHER SERVICE INDIANAPOLIS IN
500 PM EDT THU AUG 25 2016

NOTE: "FAIR" INDICATES FEW OR NO CLOUDS BELOW 12,000 FEET WITH NO
SIGNIFICANT WEATHER AND/OR OBSTRUCTIONS TO VISIBILITY.

* - STATION DOES NOT REPORT WEATHER SUCH AS PRECIPITATION OR FOG.

+ - STATION NOT QUALITY CONTROLLED BY THE NATIONAL WEATHER SERVICE.
    USE DATA WITH CAUTION...ESPECIALLY DEWPOINT AND RELATIVE
    HUMIDITY OBSERVATIONS.

INZ001>003-010>013-019-020-252200-
NORTHWEST INDIANA

CITY           SKY/WX    TMP DP  RH WIND       PRES   REMARKS
GARY /AIRPORT/ PTSUNNY   81  72  74 VRB5      30.04S
KNOX *+        MOSUNNY   81  50  34 W8        30.03S
MONTICELLO +   PTSUNNY   82  67  61 W8        30.04S
RENSSELAER +   MOSUNNY   82  72  69 W7        30.04F

$$

LMZ046-743>745-252200-
SOUTHERN LAKE MICHIGAN

STATION/POSITION TIME  TEMP    WIND        PRES    WAVE
                       AIR SEA DIR/SP/G            HT
                 (UTC) (F)     (DEG/KT/KT) (MB)    (FT)
BURNS HARBOR     2017   75      40/  4/  6 1017.6F
MICHIGAN CITY    2000   76     330/  4/  5   N/A
5NW MICH CITY    2000   74 74  340/  2/  4   N/A     1

$$

INZ004-005-014>016-021>024-252200-
NORTH CENTRAL INDIANA

CITY           SKY/WX    TMP DP  RH WIND       PRES   REMARKS
GOSHEN         MOSUNNY   81  70  69 W13       30.02F
SOUTH BEND     MOSUNNY   79  70  74 NW9       30.04F

$$

INZ006>009-017-018-025>027-252200-
NORTHEAST INDIANA

CITY           SKY/WX    TMP DP  RH WIND       PRES   REMARKS
ANGOLA *+      PTSUNNY   82  77  83 W10       30.02F
FORT WAYNE     MOSUNNY   84  69  60 W15G22    30.03F

$$

INZ028-029-035-036-043>045-051>053-252200-
WEST CENTRAL INDIANA

CITY           SKY/WX    TMP DP  RH WIND       PRES   REMARKS
CRAWFORDSVL +  PTSUNNY   84  72  67 W10       30.06S
GREENCASTLE +  SUNNY     86  75  70 W3        30.07F HX  95
LAFAYETTE      CLOUDY    83  70  64 W10       30.04S
TERRE HAUTE    MOSUNNY   88  71  57 VRB6      30.05F

$$

INZ030>032-037>040-046>048-054>057-064-065-252200-
CENTRAL INDIANA

CITY           SKY/WX    TMP DP  RH WIND       PRES   REMARKS
COLUMBUS       PTSUNNY   90  77  66 W7        30.05F HX 102
INDIANAPOLIS   MOSUNNY   89  70  53 SW16      30.05F
-EAGLE CREEK   MOSUNNY   88  70  55 W9        30.05S
MT COMFORT *+  MOSUNNY   84  72  65 W12G18    30.06F
SHELBYVILLE    MOSUNNY   88  72  58 SW12      30.05S

$$

INZ033-034-041-042-049-050-058-059-252200-
EAST CENTRAL INDIANA

CITY           SKY/WX    TMP DP  RH WIND       PRES   REMARKS
MUNCIE         SUNNY     86  70  58 W12       30.04F

$$

INZ060-061-067>069-081>083-085>088-252200-
SOUTHWEST INDIANA

CITY           SKY/WX    TMP DP  RH WIND       PRES   REMARKS
EVANSVILLE     MOSUNNY   91  71  51 SW7       30.06F HX  97
HUNTINGBURG *+ MOSUNNY   91  72  52 SW7       30.07S HX  98

$$

INZ062-063-066-070>080-084-089>092-252200-
SOUTH CENTRAL AND SOUTHEAST INDIANA

CITY           SKY/WX    TMP DP  RH WIND       PRES   REMARKS
BLOOMINGTON    MOSUNNY   86  73  65 W7        30.07F
MADISON *+     MOSUNNY   88  70  55 W8        30.09F

$$





USA.gov is the U.S. government's official web portal to all federal, state and local government web resources and services.